Flag for Ecuador Weather past 2 weeks in Guayaquil, Ecuador

Now
79 °F

Partly cloudy.


Feels Like: 81 °F
Forecast: 76 / 87 °F
Wind: 9 mph from Southwest

Location: Guayaquil / Simon Bolivar


UV Index: 3 (Moderate)

Visibility: N/A


Pressure: 29.83 "Hg

Humidity: 74%

Dew point: 70 °F

Location of GuayaquilLocation

Historic Weather in Guayaquil

°F

Guayaquil temperature yesterday

Maximum temperature yesterday: 88 °F (at 4:00 PM)
Minimum temperature yesterday: 77 °F (at 12:00 AM)
Average temperature yesterday: 81 °F

Past Weeks' High & Low Weather Summary

 TemperatureHumidityPressure
High91 °F (Apr 6, 2:00 PM)89% (Apr 7, 7:00 AM)29.89 "Hg (Apr 7, 7:00 AM)
Low73 °F (Apr 10, 1:00 AM)49% (Apr 16, 11:00 AM)29.68 "Hg (Apr 13, 4:00 PM)
Average82 °F70%29.79 "Hg
* Reported Apr 5 1:00 AM — Apr 20 1:00 AM, Guayaquil, Weather by CustomWeather, © 2014

Note: Actual official high and low records may vary slightly from our data, if they occured in-between our weather recording intervals... More about our weather records

Advertising

Historic Weather Conditions — Data for Previous 24 hours

 ConditionsComfort  
Time TempWeatherWind HumidityBarometerVisibility
1:00 AM
Apr 20
79 °FPartly cloudy.9 mph70%29.83 "HgN/A
12:00 AM79 °FPassing clouds.6 mph70%29.83 "HgN/A
11:00 PM
Apr 19
81 °FPassing clouds.8 mph66%29.83 "HgN/A
10:00 PM81 °FPassing clouds.9 mph62%29.83 "HgN/A
9:00 PM82 °FPassing clouds.10 mph62%29.80 "HgN/A
8:00 PM82 °FPassing clouds.5 mph79%29.77 "HgN/A
7:00 PM84 °FPassing clouds.5 mph66%29.77 "HgN/A
6:00 PM86 °FThunderstorms. Cloudy.N/A59%29.74 "HgN/A
5:00 PM88 °FPartly sunny.3 mph59%29.71 "HgN/A
4:00 PM88 °FBroken clouds.5 mph62%29.71 "HgN/A
3:00 PM86 °FBroken clouds.2 mph62%29.74 "HgN/A
2:00 PM84 °FPartly sunny.3 mph70%29.77 "HgN/A
1:00 PM84 °FPartly sunny.6 mph66%29.77 "HgN/A
12:00 PM86 °FBroken clouds.6 mph59%29.80 "HgN/A
11:00 AM84 °FBroken clouds.6 mph66%29.83 "HgN/A
10:00 AM81 °FBroken clouds.5 mph74%29.83 "HgN/A
9:00 AM79 °FBroken clouds.1 mph79%29.83 "HgN/A
8:00 AM77 °FBroken clouds.2 mph83%29.83 "HgN/A
7:00 AM77 °FPartly sunny.2 mph83%29.83 "HgN/A
6:00 AM77 °FPartly cloudy.3 mph83%29.83 "HgN/A
5:00 AM79 °FWarm.N/A70%29.83 "HgN/A
4:00 AM79 °FPassing clouds.2 mph70%29.80 "HgN/A
3:00 AM77 °FPassing clouds.3 mph79%29.80 "HgN/A
2:00 AM77 °FWarm.N/A79%29.83 "HgN/A
Weather by CustomWeather, © 2014

See weather overview